Weather Roundup
Issued by NWS Corpus Christi, TX

Home | Current Version | Previous Version | Text Only | Print | Product List | Glossary On
Versions: 1 2 3 4 5 6 7 8 9 10 11 12 13 14 15 16 17 18 19 20 21 22 23 24 25 26 27 28 29 30 31 32 33 34 35 36 37 38 39 40 41 42 43 44 45 46 47 48 49 50
000
ASUS44 KCRP 260210
HRRCRP

SOUTH TEXAS REGIONAL WEATHER ROUNDUP
NATIONAL WEATHER SERVICE CORPUS CHRISTI TX
800 PM CST SUN JAN 25 2015


TXZ229>244-260300-
...CORPUS CHRISTI AREA OBSERVATIONS...

CITY           SKY/WX    TMP DP  RH WIND       PRES   REMARKS
CORPUS CHRISTI CLOUDY    56  44  64 N8        30.17R
NAS CORPUS CHR MOCLDY    56  47  71 N8        30.16R
ROCKPORT       PTCLDY    57  44  62 NW5       30.16R
KINGSVILLE NAS MOCLDY    58  44  60 N8        30.17R
ALICE          MOCLDY    58  39  49 N8        30.17R
FALFURRIAS     CLOUDY    60  39  46 CALM      30.17R
$$

...VICTORIA AREA OBSERVATIONS...

CITY           SKY/WX    TMP DP  RH WIND       PRES   REMARKS
VICTORIA       PTCLDY    55  44  66 W7        30.16R
BEEVILLE       FAIR      58  42  55 NW5       30.17R
PLEASANTON     MOCLDY    52  42  68 CALM      30.19R
SAN ANTONIO    MOCLDY    53  38  56 NW7       30.19R
$$

...LAREDO AREA OBSERVATIONS...

CITY           SKY/WX    TMP DP  RH WIND       PRES   REMARKS
LAREDO         NOT AVBL
COTULLA        MOCLDY    59  40  49 NW3       30.19R
DEL RIO        CLOUDY    58  36  43 NW7       30.22R
MCALLEN        CLOUDY    62  44  51 SW3       30.18R
HEBBRONVILLE   CLOUDY    58  38  47 NW7       30.19R
$$

...OTHER TEXAS OBSERVATIONS...

CITY           SKY/WX    TMP DP  RH WIND       PRES   REMARKS
BROWNSVILLE    CLOUDY    57  50  77 S3        30.17R
HOUSTON        FAIR      61  32  33 NW13      30.08R
COL. STATION   PTCLDY    57  25  29 NW9       30.13R
AUSTIN         PTCLDY    56  32  40 W5        30.16R
WACO           CLEAR     54  27  35 NW9       30.16R
FORT WORTH     CLEAR     54  24  31 NW10      30.12R
WICHITA FALLS  CLEAR     48  26  42 NW6       30.14R
LUBBOCK        CLEAR     44  33  65 W5        30.23R
EL PASO        MOCLDY    54  26  34 CALM      30.24R
$$

...MARINE OBSERVATIONS...

STATION/POSITION TIME  SKY/WX   TEMP    WIND        PRES    VSBY  WAVE   SWELL
                                AIR SEA DIR/SP/G                  HT/PER HT/PER
                 (UTC)          (F)     (DEG/KT/KT) (MB)    (MI)  (FT/S) (FT/S)
PORT ARANSAS     0200            63 56  320/  8/  9 1021.9R
BUOY 90 E PORT A 0200            66 69  300/ 14/ 16 1020.2R         4/ 5
BUOY 45 SE BAFFI 0200            65 67  250/  8/ 10 1020.9R         1/ 3
BUOY 200 E PT IS 0200            67 72  300/ 17/ 19 1019.2R         4/ 6
BUOY 15 E GALVES 0200            59 55  270/ 14/ 16 1017.0R         3/ 6
$$


USA.gov is the U.S. government's official web portal to all federal, state and local government web resources and services.